Private Wetterstation Wechselburg
Wetterdaten: Montag, 28.05.2018
Datum Zeit Temp. +2m Bodentemp. Temp.+5cm Temp. Wind Windchill X Diff Temp. Feuchte +2m Feuchte +5cm Luftdruck Regen Wind Richtung Richtung Sonnenschein Taupunkt Windchill Windben
28.05.2018 00:00 16,5 C 18,7 C 16,7 C 16,3 C 15,8 C 0,0 C 84 % 89 % 1018,5 hPa 0,0 l/m 0,0 km/h (0 Bft) NW 315 0 min 13,8 C 15,8 C 0,0 km/h (0 Bft)
28.05.2018 00:05 16,4 C 18,6 C 16,5 C 16,1 C 15,5 C 0,0 C 84 % 89 % 1018,5 hPa 0,0 l/m 0,0 km/h (0 Bft) NW 315 0 min 13,7 C 15,5 C 0,0 km/h (0 Bft)
28.05.2018 00:10 16,4 C 18,7 C 16,5 C 16,1 C 15,4 C 0,0 C 84 % 89 % 1018,5 hPa 0,0 l/m 0,0 km/h (0 Bft) N-NO 22 0 min 13,7 C 15,4 C 0,0 km/h (0 Bft)
28.05.2018 00:15 16,2 C 18,7 C 16,4 C 15,9 C 15,4 C 0,0 C 85 % 89 % 1018,6 hPa 0,0 l/m 0,0 km/h (0 Bft) N-NO 22 0 min 13,7 C 15,4 C 0,0 km/h (0 Bft)
28.05.2018 00:20 16,1 C 18,7 C 16,3 C 15,9 C 15,4 C 0,0 C 85 % 89 % 1018,6 hPa 0,0 l/m 0,0 km/h (0 Bft) N-NO 22 0 min 13,6 C 15,4 C 0,0 km/h (0 Bft)
28.05.2018 00:25 16,1 C 18,6 C 16,3 C 15,9 C 15,4 C 0,0 C 85 % 89 % 1018,6 hPa 0,0 l/m 0,0 km/h (0 Bft) NO 45 0 min 13,6 C 15,4 C 0,0 km/h (0 Bft)
28.05.2018 00:30 15,9 C 18,6 C 16,2 C 15,7 C 15,4 C 0,0 C 85 % 89 % 1018,6 hPa 0,0 l/m 0,0 km/h (0 Bft) NO 45 0 min 13,4 C 15,4 C 0,0 km/h (0 Bft)
28.05.2018 00:35 15,9 C 18,6 C 16,1 C 15,7 C 15,2 C 0,0 C 85 % 89 % 1018,4 hPa 0,0 l/m 0,0 km/h (0 Bft) NW 315 0 min 13,4 C 15,2 C 0,0 km/h (0 Bft)
28.05.2018 00:40 15,7 C 18,6 C 16,1 C 15,5 C 15,1 C 0,0 C 85 % 89 % 1018,4 hPa 0,0 l/m 0,0 km/h (0 Bft) NW 315 0 min 13,2 C 15,1 C 0,0 km/h (0 Bft)
28.05.2018 00:45 15,6 C 18,6 C 16,0 C 15,4 C 15,0 C 0,0 C 85 % 89 % 1018,4 hPa 0,0 l/m 0,0 km/h (0 Bft) NW 315 0 min 13,1 C 15,0 C 0,0 km/h (0 Bft)
28.05.2018 00:50 15,6 C 18,6 C 15,9 C 15,4 C 15,0 C 0,0 C 85 % 89 % 1018,4 hPa 0,0 l/m 0,0 km/h (0 Bft) O-NO 67 0 min 13,1 C 15,0 C 0,0 km/h (0 Bft)
28.05.2018 00:55 15,4 C 18,6 C 15,9 C 15,3 C 15,0 C 0,0 C 85 % 89 % 1018,2 hPa 0,0 l/m 0,0 km/h (0 Bft) O-NO 67 0 min 12,9 C 15,0 C 0,0 km/h (0 Bft)
28.05.2018 01:00 15,3 C 18,6 C 15,7 C 15,2 C 14,9 C 0,0 C 85 % 89 % 1018,2 hPa 0,0 l/m 0,0 km/h (0 Bft) O-NO 67 0 min 12,8 C 14,9 C 0,0 km/h (0 Bft)
28.05.2018 01:05 15,2 C 18,7 C 15,7 C 15,1 C 14,8 C 0,0 C 85 % 89 % 1018,2 hPa 0,0 l/m 0,0 km/h (0 Bft) N-NO 22 0 min 12,7 C 14,8 C 0,0 km/h (0 Bft)
28.05.2018 01:10 15,1 C 18,7 C 15,6 C 15,0 C 14,7 C 0,0 C 85 % 89 % 1018,2 hPa 0,0 l/m 0,0 km/h (0 Bft) NO 45 0 min 12,6 C 14,7 C 0,0 km/h (0 Bft)
28.05.2018 01:15 15,0 C 18,7 C 15,5 C 14,8 C 14,5 C 0,0 C 85 % 89 % 1018,1 hPa 0,0 l/m 0,0 km/h (0 Bft) NO 45 0 min 12,5 C 14,5 C 0,0 km/h (0 Bft)
28.05.2018 01:20 14,9 C 18,7 C 15,5 C 14,7 C 14,4 C 0,0 C 85 % 89 % 1018,1 hPa 0,0 l/m 0,0 km/h (0 Bft) N-NO 22 0 min 12,4 C 14,4 C 0,0 km/h (0 Bft)
28.05.2018 01:25 14,8 C 18,7 C 15,4 C 14,7 C 14,4 C 0,0 C 85 % 89 % 1018,1 hPa 0,0 l/m 0,0 km/h (0 Bft) NO 45 0 min 12,3 C 14,4 C 0,0 km/h (0 Bft)
28.05.2018 01:30 14,8 C 18,7 C 15,3 C 14,7 C 14,5 C 0,0 C 85 % 89 % 1018,1 hPa 0,0 l/m 0,0 km/h (0 Bft) N-NO 22 0 min 12,3 C 14,5 C 0,0 km/h (0 Bft)
28.05.2018 01:35 14,7 C 18,6 C 15,3 C 14,6 C 14,3 C 0,0 C 85 % 89 % 1018,2 hPa 0,0 l/m 0,0 km/h (0 Bft) N-NO 22 0 min 12,2 C 14,3 C 0,0 km/h (0 Bft)
28.05.2018 01:40 14,7 C 18,6 C 15,2 C 14,5 C 14,1 C 0,0 C 85 % 89 % 1018,2 hPa 0,0 l/m 0,0 km/h (0 Bft) O-NO 67 0 min 12,2 C 14,1 C 0,0 km/h (0 Bft)
28.05.2018 01:45 14,5 C 18,6 C 15,1 C 14,3 C 14,0 C 0,0 C 85 % 89 % 1018,2 hPa 0,0 l/m 0,0 km/h (0 Bft) O-NO 67 0 min 12,0 C 14,0 C 0,0 km/h (0 Bft)
28.05.2018 01:50 14,4 C 18,6 C 15,1 C 14,2 C 13,9 C 0,0 C 85 % 89 % 1018,2 hPa 0,0 l/m 0,0 km/h (0 Bft) NO 45 0 min 11,9 C 13,9 C 0,0 km/h (0 Bft)
28.05.2018 01:55 14,3 C 18,6 C 14,9 C 14,2 C 13,9 C 0,0 C 85 % 89 % 1018,1 hPa 0,0 l/m 0,0 km/h (0 Bft) O-NO 67 0 min 11,8 C 13,9 C 0,0 km/h (0 Bft)
28.05.2018 02:00 14,3 C 18,6 C 14,9 C 14,2 C 13,9 C 0,0 C 86 % 89 % 1018,1 hPa 0,0 l/m 0,0 km/h (0 Bft) O-NO 67 0 min 12,0 C 13,9 C 0,0 km/h (0 Bft)
28.05.2018 02:05 14,1 C 18,6 C 14,9 C 14,0 C 13,9 C 0,0 C 86 % 89 % 1018,1 hPa 0,0 l/m 0,0 km/h (0 Bft) NO 45 0 min 11,8 C 13,9 C 0,0 km/h (0 Bft)
28.05.2018 02:10 14,0 C 18,6 C 14,8 C 14,0 C 13,9 C 0,0 C 86 % 89 % 1018,1 hPa 0,0 l/m 0,0 km/h (0 Bft) O-NO 67 0 min 11,7 C 13,9 C 0,0 km/h (0 Bft)
28.05.2018 02:15 14,0 C 18,5 C 14,9 C 13,9 C 13,8 C 0,0 C 86 % 89 % 1017,9 hPa 0,0 l/m 0,0 km/h (0 Bft) O-NO 67 0 min 11,7 C 13,8 C 0,0 km/h (0 Bft)
28.05.2018 02:20 13,9 C 18,5 C 14,7 C 13,8 C 13,6 C 0,0 C 86 % 89 % 1017,9 hPa 0,0 l/m 0,0 km/h (0 Bft) NW 315 0 min 11,6 C 13,6 C 0,0 km/h (0 Bft)
28.05.2018 02:25 13,9 C 18,5 C 14,7 C 13,7 C 13,4 C 0,0 C 86 % 89 % 1017,9 hPa 0,0 l/m 0,0 km/h (0 Bft) NW 315 0 min 11,6 C 13,4 C 0,0 km/h (0 Bft)
28.05.2018 02:30 13,7 C 18,5 C 14,5 C 13,6 C 13,3 C 0,0 C 86 % 89 % 1017,9 hPa 0,0 l/m 0,0 km/h (0 Bft) N-NW 337 0 min 11,4 C 13,3 C 0,0 km/h (0 Bft)
28.05.2018 02:35 13,6 C 18,5 C 14,5 C 13,5 C 13,3 C 0,0 C 86 % 89 % 1017,9 hPa 0,0 l/m 0,0 km/h (0 Bft) NO 45 0 min 11,3 C 13,3 C 0,0 km/h (0 Bft)
28.05.2018 02:40 13,6 C 18,5 C 14,5 C 13,5 C 13,3 C 0,0 C 86 % 89 % 1017,9 hPa 0,0 l/m 0,0 km/h (0 Bft) NO 45 0 min 11,3 C 13,3 C 0,0 km/h (0 Bft)
28.05.2018 02:45 13,5 C 18,5 C 14,3 C 13,4 C 13,3 C 0,0 C 86 % 89 % 1017,9 hPa 0,0 l/m 0,0 km/h (0 Bft) NO 45 0 min 11,2 C 13,3 C 0,0 km/h (0 Bft)
28.05.2018 02:50 13,5 C 18,5 C 14,3 C 13,4 C 13,3 C 0,0 C 86 % 89 % 1017,9 hPa 0,0 l/m 0,0 km/h (0 Bft) NO 45 0 min 11,2 C 13,3 C 0,0 km/h (0 Bft)
28.05.2018 02:55 13,4 C 18,5 C 14,3 C 13,4 C 13,3 C 0,0 C 86 % 89 % 1017,4 hPa 0,0 l/m 0,0 km/h (0 Bft) NO 45 0 min 11,1 C 13,3 C 0,0 km/h (0 Bft)
28.05.2018 03:00 13,3 C 18,5 C 14,3 C 13,2 C 13,1 C 0,0 C 86 % 89 % 1017,4 hPa 0,0 l/m 0,0 km/h (0 Bft) NO 45 0 min 11,0 C 13,1 C 0,0 km/h (0 Bft)
28.05.2018 03:05 13,2 C 18,5 C 14,3 C 13,2 C 13,1 C 0,0 C 86 % 89 % 1017,4 hPa 0,0 l/m 0,0 km/h (0 Bft) NO 45 0 min 10,9 C 13,1 C 0,0 km/h (0 Bft)
28.05.2018 03:10 13,2 C 18,5 C 14,1 C 13,1 C 13,0 C 0,0 C 86 % 89 % 1017,4 hPa 0,0 l/m 0,0 km/h (0 Bft) N-NO 22 0 min 10,9 C 13,0 C 0,0 km/h (0 Bft)
28.05.2018 03:15 13,1 C 18,5 C 14,1 C 13,1 C 13,0 C 0,0 C 86 % 89 % 1017,6 hPa 0,0 l/m 0,0 km/h (0 Bft) N-NO 22 0 min 10,8 C 13,0 C 0,0 km/h (0 Bft)
28.05.2018 03:20 13,1 C 18,5 C 14,0 C 13,0 C 12,9 C 0,0 C 86 % 89 % 1017,6 hPa 0,0 l/m 0,0 km/h (0 Bft) N-NO 22 0 min 10,8 C 12,9 C 0,0 km/h (0 Bft)
28.05.2018 03:25 12,9 C 18,4 C 14,1 C 12,9 C 12,9 C 0,0 C 86 % 89 % 1017,6 hPa 0,0 l/m 0,0 km/h (0 Bft) NO 45 0 min 10,6 C 12,9 C 0,0 km/h (0 Bft)
28.05.2018 03:30 12,9 C 18,4 C 13,9 C 13,0 C 13,0 C 0,1 C 86 % 89 % 1017,6 hPa 0,0 l/m 0,0 km/h (0 Bft) NO 45 0 min 10,6 C 13,0 C 0,0 km/h (0 Bft)
28.05.2018 03:35 12,8 C 18,4 C 13,9 C 13,0 C 13,0 C 0,2 C 86 % 89 % 1017,6 hPa 0,0 l/m 0,0 km/h (0 Bft) N-NO 22 0 min 10,5 C 13,0 C 0,0 km/h (0 Bft)
28.05.2018 03:40 12,8 C 18,4 C 13,9 C 12,9 C 12,9 C 0,1 C 86 % 89 % 1017,6 hPa 0,0 l/m 0,0 km/h (0 Bft) N-NO 22 0 min 10,5 C 12,9 C 0,0 km/h (0 Bft)
28.05.2018 03:45 12,7 C 18,4 C 13,8 C 12,8 C 12,8 C 0,1 C 86 % 89 % 1017,6 hPa 0,0 l/m 0,0 km/h (0 Bft) N-NO 22 0 min 10,4 C 12,8 C 0,0 km/h (0 Bft)
28.05.2018 03:50 12,6 C 18,3 C 13,8 C 12,7 C 12,7 C 0,1 C 86 % 89 % 1017,6 hPa 0,0 l/m 0,0 km/h (0 Bft) NW 315 0 min 10,3 C 12,7 C 0,0 km/h (0 Bft)
28.05.2018 03:55 12,7 C 18,2 C 13,7 C 12,6 C 12,5 C 0,0 C 86 % 89 % 1017,2 hPa 0,0 l/m 0,0 km/h (0 Bft) NW 315 0 min 10,4 C 12,5 C 0,0 km/h (0 Bft)
28.05.2018 04:00 12,5 C 18,2 C 13,7 C 12,4 C 12,3 C 0,0 C 86 % 89 % 1017,2 hPa 0,0 l/m 0,0 km/h (0 Bft) NW 315 0 min 10,2 C 12,3 C 0,0 km/h (0 Bft)
28.05.2018 04:05 12,4 C 18,3 C 13,6 C 12,4 C 12,3 C 0,0 C 86 % 89 % 1017,2 hPa 0,0 l/m 0,0 km/h (0 Bft) NW 315 0 min 10,1 C 12,3 C 0,0 km/h (0 Bft)
28.05.2018 04:10 12,4 C 18,3 C 13,5 C 12,4 C 12,3 C 0,0 C 86 % 89 % 1017,2 hPa 0,0 l/m 0,0 km/h (0 Bft) NW 315 0 min 10,1 C 12,3 C 0,0 km/h (0 Bft)
28.05.2018 04:15 12,3 C 18,2 C 13,5 C 12,3 C 12,3 C 0,0 C 86 % 89 % 1017,8 hPa 0,0 l/m 0,0 km/h (0 Bft) N-NW 337 0 min 10,0 C 12,3 C 0,0 km/h (0 Bft)
28.05.2018 04:20 12,2 C 18,4 C 13,5 C 12,3 C 12,3 C 0,1 C 86 % 89 % 1017,8 hPa 0,0 l/m 0,0 km/h (0 Bft) NW 315 0 min 9,9 C 12,3 C 0,0 km/h (0 Bft)
28.05.2018 04:25 12,3 C 18,3 C 13,5 C 12,3 C 12,3 C 0,0 C 86 % 89 % 1017,8 hPa 0,0 l/m 0,0 km/h (0 Bft) N-NW 337 0 min 10,0 C 12,3 C 0,0 km/h (0 Bft)
28.05.2018 04:30 12,1 C 18,3 C 13,5 C 12,3 C 12,3 C 0,2 C 86 % 89 % 1017,8 hPa 0,0 l/m 0,0 km/h (0 Bft) N-NW 337 0 min 9,8 C 12,3 C 0,0 km/h (0 Bft)
28.05.2018 04:35 12,1 C 18,3 C 13,5 C 12,3 C 12,3 C 0,2 C 86 % 89 % 1018,0 hPa 0,0 l/m 0,0 km/h (0 Bft) NW 315 0 min 9,8 C 12,3 C 0,0 km/h (0 Bft)
28.05.2018 04:40 12,0 C 18,3 C 13,5 C 12,3 C 12,3 C 0,3 C 86 % 89 % 1018,0 hPa 0,0 l/m 0,0 km/h (0 Bft) NW 315 0 min 9,7 C 12,3 C 0,0 km/h (0 Bft)
28.05.2018 04:45 12,1 C 18,3 C 13,4 C 12,3 C 12,3 C 0,2 C 86 % 89 % 1018,0 hPa 0,0 l/m 0,0 km/h (0 Bft) N-NW 337 0 min 9,8 C 12,3 C 0,0 km/h (0 Bft)
28.05.2018 04:50 12,0 C 18,3 C 13,5 C 12,4 C 12,4 C 0,4 C 86 % 89 % 1018,0 hPa 0,0 l/m 0,0 km/h (0 Bft) NO 45 0 min 9,7 C 12,4 C 0,0 km/h (0 Bft)
28.05.2018 04:55 12,0 C 18,3 C 13,4 C 12,5 C 12,5 C 0,5 C 87 % 88 % 1018,1 hPa 0,0 l/m 0,0 km/h (0 Bft) NO 45 0 min 9,9 C 12,5 C 0,0 km/h (0 Bft)
28.05.2018 05:00 12,0 C 18,3 C 13,4 C 12,5 C 12,5 C 0,5 C 87 % 88 % 1018,1 hPa 0,0 l/m 0,0 km/h (0 Bft) N-NO 22 0 min 9,9 C 12,5 C 0,0 km/h (0 Bft)
28.05.2018 05:05 11,9 C 18,3 C 13,4 C 12,5 C 12,5 C 0,6 C 87 % 88 % 1018,1 hPa 0,0 l/m 0,0 km/h (0 Bft) N-NO 22 0 min 9,8 C 12,5 C 0,0 km/h (0 Bft)
28.05.2018 05:10 11,9 C 18,3 C 13,5 C 12,5 C 12,5 C 0,6 C 87 % 89 % 1018,1 hPa 0,0 l/m 0,0 km/h (0 Bft) N-NO 22 0 min 9,8 C 12,5 C 0,0 km/h (0 Bft)
28.05.2018 05:15 11,9 C 18,2 C 13,5 C 12,4 C 12,4 C 0,5 C 87 % 89 % 1017,9 hPa 0,0 l/m 0,0 km/h (0 Bft) N-NO 22 0 min 9,8 C 12,4 C 0,0 km/h (0 Bft)
28.05.2018 05:20 11,9 C 18,2 C 13,3 C 12,3 C 12,3 C 0,4 C 87 % 88 % 1017,9 hPa 0,0 l/m 0,0 km/h (0 Bft) N-NO 22 5 min 9,8 C 12,3 C 0,0 km/h (0 Bft)
28.05.2018 05:25 11,9 C 18,2 C 13,3 C 12,2 C 12,2 C 0,3 C 87 % 88 % 1017,9 hPa 0,0 l/m 0,0 km/h (0 Bft) N-NO 22 0 min 9,8 C 12,2 C 0,0 km/h (0 Bft)
28.05.2018 05:30 11,7 C 18,2 C 13,2 C 12,1 C 12,1 C 0,4 C 87 % 89 % 1017,9 hPa 0,0 l/m 0,0 km/h (0 Bft) NW 315 0 min 9,6 C 12,1 C 0,0 km/h (0 Bft)
28.05.2018 05:35 11,7 C 18,2 C 13,3 C 12,1 C 12,1 C 0,4 C 87 % 89 % 1018,1 hPa 0,0 l/m 0,0 km/h (0 Bft) NW 315 0 min 9,6 C 12,1 C 0,0 km/h (0 Bft)
28.05.2018 05:40 11,6 C 18,1 C 13,2 C 12,1 C 12,1 C 0,5 C 87 % 88 % 1018,1 hPa 0,0 l/m 0,0 km/h (0 Bft) NW 315 0 min 9,5 C 12,1 C 0,0 km/h (0 Bft)
28.05.2018 05:45 11,7 C 18,0 C 13,3 C 12,1 C 12,1 C 0,4 C 87 % 88 % 1018,1 hPa 0,0 l/m 0,0 km/h (0 Bft) NW 315 0 min 9,6 C 12,1 C 0,0 km/h (0 Bft)
28.05.2018 05:50 11,6 C 18,1 C 13,3 C 12,2 C 12,2 C 0,6 C 87 % 88 % 1018,1 hPa 0,0 l/m 0,0 km/h (0 Bft) NW 315 0 min 9,5 C 12,2 C 0,0 km/h (0 Bft)
28.05.2018 05:55 11,6 C 18,1 C 13,3 C 12,3 C 12,3 C 0,7 C 87 % 88 % 1018,4 hPa 0,0 l/m 0,0 km/h (0 Bft) NW 315 0 min 9,5 C 12,3 C 0,0 km/h (0 Bft)
28.05.2018 06:00 11,5 C 18,1 C 13,3 C 12,4 C 12,4 C 0,9 C 87 % 88 % 1018,4 hPa 0,0 l/m 0,0 km/h (0 Bft) NW 315 0 min 9,4 C 12,4 C 0,0 km/h (0 Bft)
28.05.2018 06:05 11,6 C 18,1 C 13,5 C 12,5 C 12,5 C 0,9 C 87 % 89 % 1018,4 hPa 0,0 l/m 0,0 km/h (0 Bft) NW 315 0 min 9,5 C 12,5 C 0,0 km/h (0 Bft)
28.05.2018 06:10 11,6 C 18,1 C 13,5 C 12,6 C 12,6 C 1,0 C 87 % 89 % 1018,4 hPa 0,0 l/m 0,0 km/h (0 Bft) NW 315 0 min 9,5 C 12,6 C 0,0 km/h (0 Bft)
28.05.2018 06:15 11,6 C 18,1 C 13,4 C 12,6 C 12,6 C 1,0 C 87 % 88 % 1018,4 hPa 0,0 l/m 0,0 km/h (0 Bft) NW 315 0 min 9,5 C 12,6 C 0,0 km/h (0 Bft)
28.05.2018 06:20 11,6 C 18,1 C 13,5 C 12,7 C 12,7 C 1,1 C 87 % 89 % 1018,4 hPa 0,0 l/m 0,2 km/h (0 Bft) NO 45 0 min 9,5 C 12,7 C 0,0 km/h (0 Bft)
28.05.2018 06:25 11,6 C 18,1 C 13,7 C 12,9 C 12,9 C 1,3 C 87 % 89 % 1018,4 hPa 0,0 l/m 0,5 km/h (0 Bft) N-NO 22 0 min 9,5 C 12,9 C 0,0 km/h (0 Bft)
28.05.2018 06:30 11,7 C 18,0 C 13,7 C 13,1 C 13,1 C 1,4 C 87 % 89 % 1018,4 hPa 0,0 l/m 0,3 km/h (0 Bft) N-NO 22 0 min 9,6 C 13,1 C 0,0 km/h (0 Bft)
28.05.2018 06:35 11,7 C 17,9 C 13,6 C 13,1 C 13,1 C 1,4 C 87 % 89 % 1018,0 hPa 0,0 l/m 0,0 km/h (0 Bft) NW 315 0 min 9,6 C 13,1 C 1,9 km/h (1 Bft)
28.05.2018 06:40 11,7 C 17,9 C 13,8 C 13,1 C 13,1 C 1,4 C 87 % 89 % 1018,0 hPa 0,0 l/m 0,0 km/h (0 Bft) N-NW 337 0 min 9,6 C 13,1 C 0,0 km/h (0 Bft)
28.05.2018 06:45 11,9 C 17,9 C 13,9 C 13,3 C 13,3 C 1,4 C 87 % 89 % 1018,0 hPa 0,0 l/m 0,0 km/h (0 Bft) O-NO 67 0 min 9,8 C 13,3 C 0,0 km/h (0 Bft)
28.05.2018 06:50 11,9 C 17,8 C 14,3 C 13,7 C 13,7 C 1,8 C 87 % 88 % 1018,0 hPa 0,0 l/m 0,0 km/h (0 Bft) NW 315 0 min 9,8 C 13,7 C 0,0 km/h (0 Bft)
28.05.2018 06:55 12,0 C 17,7 C 14,5 C 14,0 C 14,0 C 2,0 C 87 % 88 % 1018,6 hPa 0,0 l/m 0,0 km/h (0 Bft) NW 315 0 min 9,9 C 14,0 C 0,0 km/h (0 Bft)
28.05.2018 07:00 12,1 C 17,7 C 14,6 C 15,8 C 15,8 C 3,7 C 87 % 88 % 1018,6 hPa 0,0 l/m 0,0 km/h (0 Bft) NW 315 5 min 10,0 C 15,8 C 0,0 km/h (0 Bft)
28.05.2018 07:05 12,3 C 17,7 C 14,8 C 17,1 C 17,1 C 4,8 C 87 % 88 % 1018,6 hPa 0,0 l/m 0,0 km/h (0 Bft) N 360 5 min 10,2 C 17,1 C 0,0 km/h (0 Bft)
28.05.2018 07:10 12,7 C 17,7 C 15,2 C 18,9 C 18,9 C 6,2 C 88 % 88 % 1018,6 hPa 0,0 l/m 0,0 km/h (0 Bft) NW 315 5 min 10,8 C 18,9 C 0,0 km/h (0 Bft)
28.05.2018 07:15 13,2 C 17,7 C 15,5 C 20,1 C 20,1 C 6,9 C 88 % 88 % 1018,8 hPa 0,0 l/m 0,0 km/h (0 Bft) N-NO 22 5 min 11,3 C 20,1 C 0,0 km/h (0 Bft)
28.05.2018 07:20 13,9 C 17,7 C 15,9 C 21,7 C 21,7 C 7,8 C 88 % 88 % 1018,8 hPa 0,0 l/m 0,0 km/h (0 Bft) N-NO 22 5 min 11,9 C 21,7 C 0,0 km/h (0 Bft)
28.05.2018 07:25 14,1 C 17,7 C 16,2 C 22,4 C 22,4 C 8,3 C 88 % 88 % 1018,8 hPa 0,0 l/m 0,0 km/h (0 Bft) W 270 5 min 12,1 C 22,4 C 0,0 km/h (0 Bft)
28.05.2018 07:30 14,4 C 17,7 C 16,4 C 23,6 C 23,6 C 9,2 C 88 % 88 % 1018,8 hPa 0,0 l/m 0,0 km/h (0 Bft) W 270 5 min 12,4 C 23,6 C 0,0 km/h (0 Bft)
28.05.2018 07:35 14,8 C 17,7 C 16,6 C 24,1 C 24,1 C 9,3 C 88 % 88 % 1018,8 hPa 0,0 l/m 0,0 km/h (0 Bft) S 180 5 min 12,8 C 24,1 C 0,0 km/h (0 Bft)
28.05.2018 07:40 15,1 C 17,7 C 16,7 C 24,6 C 24,6 C 9,5 C 88 % 89 % 1018,8 hPa 0,0 l/m 0,0 km/h (0 Bft) SO 135 5 min 13,1 C 24,6 C 0,0 km/h (0 Bft)
28.05.2018 07:45 15,4 C 17,7 C 16,8 C 25,0 C 25,0 C 9,6 C 88 % 89 % 1018,8 hPa 0,0 l/m 0,0 km/h (0 Bft) SW 225 5 min 13,4 C 25,0 C 0,0 km/h (0 Bft)
28.05.2018 07:50 15,6 C 17,7 C 16,9 C 25,5 C 25,5 C 9,9 C 88 % 89 % 1018,8 hPa 0,0 l/m 0,0 km/h (0 Bft) W-SW 247 5 min 13,6 C 25,5 C 0,0 km/h (0 Bft)
28.05.2018 07:55 15,9 C 17,7 C 17,1 C 25,8 C 25,8 C 9,9 C 88 % 89 % 1018,9 hPa 0,0 l/m 0,0 km/h (0 Bft) NW 315 5 min 13,9 C 25,8 C 0,0 km/h (0 Bft)
28.05.2018 08:00 16,2 C 17,7 C 17,2 C 26,9 C 26,9 C 10,7 C 87 % 88 % 1018,9 hPa 0,0 l/m 0,0 km/h (0 Bft) W-NW 292 5 min 14,0 C 26,9 C 0,0 km/h (0 Bft)
28.05.2018 08:05 16,4 C 17,7 C 17,3 C 27,5 C 27,5 C 11,1 C 87 % 88 % 1018,9 hPa 0,0 l/m 0,0 km/h (0 Bft) W-NW 292 5 min 14,2 C 27,5 C 0,0 km/h (0 Bft)
28.05.2018 08:10 16,7 C 17,7 C 17,4 C 28,4 C 28,4 C 11,7 C 87 % 88 % 1018,9 hPa 0,0 l/m 0,0 km/h (0 Bft) W-NW 292 5 min 14,5 C 28,4 C 0,0 km/h (0 Bft)
28.05.2018 08:15 16,9 C 17,7 C 17,7 C 29,0 C 29,0 C 12,1 C 86 % 88 % 1019,1 hPa 0,0 l/m 0,0 km/h (0 Bft) W-NW 292 5 min 14,5 C 29,0 C 0,0 km/h (0 Bft)
28.05.2018 08:20 17,4 C 17,7 C 17,9 C 29,8 C 29,8 C 12,4 C 86 % 88 % 1019,1 hPa 0,0 l/m 0,0 km/h (0 Bft) W-NW 292 5 min 15,0 C 29,8 C 0,0 km/h (0 Bft)
28.05.2018 08:25 17,8 C 17,7 C 18,0 C 30,3 C 30,3 C 12,5 C 86 % 88 % 1019,1 hPa 0,0 l/m 0,0 km/h (0 Bft) W-NW 292 5 min 15,4 C 30,3 C 0,0 km/h (0 Bft)
28.05.2018 08:30 18,7 C 17,7 C 18,4 C 31,1 C 31,1 C 12,4 C 85 % 88 % 1019,1 hPa 0,0 l/m 0,0 km/h (0 Bft) W 270 5 min 16,1 C 31,1 C 0,0 km/h (0 Bft)
28.05.2018 08:35 19,3 C 17,7 C 18,7 C 31,5 C 31,5 C 12,2 C 85 % 88 % 1019,2 hPa 0,0 l/m 0,0 km/h (0 Bft) O 90 5 min 16,7 C 31,5 C 0,0 km/h (0 Bft)
28.05.2018 08:40 20,3 C 17,7 C 18,8 C 31,8 C 31,8 C 11,5 C 84 % 88 % 1019,2 hPa 0,0 l/m 0,0 km/h (0 Bft) SO 135 5 min 17,5 C 31,8 C 0,0 km/h (0 Bft)
28.05.2018 08:45 20,7 C 17,7 C 19,0 C 32,4 C 32,4 C 11,7 C 83 % 88 % 1019,2 hPa 0,0 l/m 0,0 km/h (0 Bft) SO 135 5 min 17,7 C 32,4 C 0,0 km/h (0 Bft)
28.05.2018 08:50 21,3 C 17,7 C 19,2 C 32,7 C 32,7 C 11,4 C 82 % 88 % 1019,2 hPa 0,0 l/m 0,0 km/h (0 Bft) W 270 5 min 18,1 C 32,7 C 0,0 km/h (0 Bft)
28.05.2018 08:55 21,6 C 17,7 C 19,3 C 32,9 C 32,9 C 11,3 C 81 % 88 % 1019,1 hPa 0,0 l/m 0,0 km/h (0 Bft) W-SW 247 5 min 18,2 C 32,9 C 0,0 km/h (0 Bft)
28.05.2018 09:00 22,1 C 17,7 C 19,5 C 32,7 C 32,7 C 10,6 C 79 % 88 % 1019,1 hPa 0,0 l/m 0,0 km/h (0 Bft) W-SW 247 5 min 18,3 C 32,7 C 0,0 km/h (0 Bft)
28.05.2018 09:05 22,3 C 17,7 C 19,6 C 32,6 C 32,6 C 10,3 C 79 % 87 % 1019,1 hPa 0,0 l/m 0,0 km/h (0 Bft) SW 225 5 min 18,5 C 32,6 C 0,0 km/h (0 Bft)
28.05.2018 09:10 22,7 C 17,7 C 19,9 C 32,8 C 32,8 C 10,1 C 77 % 87 % 1019,1 hPa 0,0 l/m 0,0 km/h (0 Bft) W-SW 247 5 min 18,5 C 32,8 C 0,0 km/h (0 Bft)
28.05.2018 09:15 22,9 C 17,7 C 20,1 C 33,2 C 33,2 C 10,3 C 78 % 87 % 1018,5 hPa 0,0 l/m 0,0 km/h (0 Bft) S 180 5 min 18,9 C 33,2 C 0,0 km/h (0 Bft)
28.05.2018 09:20 23,3 C 17,7 C 20,3 C 33,5 C 33,5 C 10,2 C 76 % 87 % 1018,5 hPa 0,0 l/m 0,0 km/h (0 Bft) S 180 5 min 18,8 C 33,5 C 0,0 km/h (0 Bft)
28.05.2018 09:25 23,3 C 17,7 C 20,6 C 32,9 C 32,9 C 9,6 C 75 % 87 % 1018,5 hPa 0,0 l/m 0,2 km/h (0 Bft) W-NW 292 5 min 18,6 C 32,9 C 1,6 km/h (1 Bft)
28.05.2018 09:30 23,6 C 17,7 C 21,3 C 32,1 C 32,1 C 8,5 C 74 % 86 % 1018,5 hPa 0,0 l/m 1,0 km/h (0 Bft) O-NO 67 5 min 18,7 C 32,1 C 3,4 km/h (1 Bft)
28.05.2018 09:35 23,9 C 17,7 C 21,6 C 31,2 C 31,2 C 7,3 C 72 % 85 % 1019,0 hPa 0,0 l/m 1,6 km/h (1 Bft) N 360 5 min 18,5 C 31,2 C 6,3 km/h (2 Bft)
28.05.2018 09:40 24,1 C 17,7 C 22,0 C 28,8 C 28,8 C 4,7 C 69 % 83 % 1019,0 hPa 0,0 l/m 3,1 km/h (1 Bft) N-NO 22 5 min 18,0 C 28,8 C 9,2 km/h (2 Bft)
28.05.2018 09:45 24,2 C 17,7 C 22,3 C 28,1 C 28,1 C 3,9 C 68 % 82 % 1019,0 hPa 0,0 l/m 3,9 km/h (1 Bft) NO 45 5 min 17,9 C 28,1 C 4,8 km/h (1 Bft)
28.05.2018 09:50 24,4 C 17,7 C 22,8 C 27,4 C 27,4 C 3,0 C 68 % 80 % 1019,0 hPa 0,0 l/m 4,3 km/h (1 Bft) NO 45 0 min 18,1 C 27,4 C 9,2 km/h (2 Bft)
28.05.2018 09:55 24,7 C 17,7 C 23,1 C 27,2 C 27,2 C 2,5 C 66 % 79 % 1018,8 hPa 0,0 l/m 4,5 km/h (1 Bft) N-NO 22 0 min 17,9 C 27,2 C 3,7 km/h (1 Bft)
28.05.2018 10:00 24,8 C 17,7 C 23,3 C 27,2 C 27,2 C 2,4 C 65 % 78 % 1018,8 hPa 0,0 l/m 4,2 km/h (1 Bft) N-NO 22 0 min 17,8 C 27,2 C 5,1 km/h (1 Bft)
28.05.2018 10:05 24,9 C 17,7 C 23,5 C 27,2 C 27,2 C 2,3 C 66 % 77 % 1018,8 hPa 0,0 l/m 3,1 km/h (1 Bft) N-NW 337 0 min 18,1 C 27,2 C 0,0 km/h (0 Bft)
28.05.2018 10:10 25,1 C 17,7 C 23,5 C 27,7 C 27,7 C 2,6 C 65 % 76 % 1018,8 hPa 0,0 l/m 2,7 km/h (1 Bft) NO 45 0 min 18,0 C 27,7 C 2,7 km/h (1 Bft)
28.05.2018 10:15 25,2 C 17,7 C 23,8 C 29,0 C 29,0 C 3,8 C 66 % 76 % 1019,2 hPa 0,0 l/m 2,7 km/h (1 Bft) O-NO 67 5 min 18,4 C 29,0 C 4,0 km/h (1 Bft)
28.05.2018 10:20 25,5 C 17,7 C 24,0 C 30,3 C 30,3 C 4,8 C 65 % 74 % 1019,2 hPa 0,0 l/m 2,9 km/h (1 Bft) O-NO 67 5 min 18,4 C 30,3 C 4,7 km/h (1 Bft)
28.05.2018 10:25 25,4 C 17,7 C 24,1 C 30,5 C 30,5 C 5,1 C 65 % 74 % 1019,2 hPa 0,0 l/m 3,2 km/h (1 Bft) NO 45 5 min 18,3 C 30,5 C 1,8 km/h (1 Bft)
28.05.2018 10:30 25,7 C 17,7 C 24,4 C 31,0 C 31,0 C 5,3 C 65 % 73 % 1019,2 hPa 0,0 l/m 3,4 km/h (1 Bft) O 90 5 min 18,6 C 31,0 C 2,9 km/h (1 Bft)
28.05.2018 10:35 26,1 C 17,7 C 24,7 C 31,4 C 31,4 C 5,3 C 64 % 73 % 1018,3 hPa 0,0 l/m 3,5 km/h (1 Bft) O-NO 67 5 min 18,7 C 31,4 C 3,1 km/h (1 Bft)
28.05.2018 10:40 26,1 C 17,7 C 24,9 C 31,3 C 31,3 C 5,2 C 62 % 71 % 1018,3 hPa 0,0 l/m 4,5 km/h (1 Bft) NO 45 5 min 18,2 C 31,3 C 7,2 km/h (2 Bft)
28.05.2018 10:45 26,1 C 17,7 C 24,9 C 30,9 C 30,9 C 4,8 C 62 % 69 % 1018,3 hPa 0,0 l/m 5,3 km/h (1 Bft) N-NO 22 5 min 18,2 C 30,9 C 9,7 km/h (2 Bft)
28.05.2018 10:50 26,1 C 17,7 C 25,0 C 30,4 C 30,4 C 4,3 C 62 % 70 % 1018,3 hPa 0,0 l/m 5,3 km/h (1 Bft) NO 45 5 min 18,2 C 30,4 C 6,9 km/h (2 Bft)
28.05.2018 10:55 26,1 C 17,7 C 25,2 C 30,5 C 30,5 C 4,4 C 63 % 69 % 1019,0 hPa 0,0 l/m 4,7 km/h (1 Bft) NO 45 5 min 18,5 C 30,5 C 4,0 km/h (1 Bft)
28.05.2018 11:00 26,3 C 17,7 C 25,3 C 31,5 C 31,5 C 5,2 C 63 % 70 % 1019,0 hPa 0,0 l/m 3,2 km/h (1 Bft) NO 45 5 min 18,7 C 31,5 C 5,5 km/h (1 Bft)
28.05.2018 11:05 26,7 C 17,7 C 25,7 C 32,5 C 32,5 C 5,8 C 63 % 70 % 1019,0 hPa 0,0 l/m 2,1 km/h (1 Bft) SO 135 5 min 19,1 C 32,5 C 2,1 km/h (1 Bft)
28.05.2018 11:10 26,9 C 17,7 C 25,8 C 32,6 C 32,6 C 5,7 C 61 % 68 % 1019,0 hPa 0,0 l/m 2,9 km/h (1 Bft) O 90 5 min 18,7 C 32,6 C 3,9 km/h (1 Bft)
28.05.2018 11:15 27,0 C 17,7 C 26,0 C 32,4 C 32,4 C 5,4 C 61 % 68 % 1019,0 hPa 0,0 l/m 2,6 km/h (1 Bft) W-SW 247 5 min 18,8 C 32,4 C 0,0 km/h (0 Bft)
28.05.2018 11:20 27,2 C 17,7 C 26,0 C 32,7 C 32,7 C 5,5 C 60 % 68 % 1019,0 hPa 0,0 l/m 1,9 km/h (1 Bft) N-NO 22 5 min 18,7 C 32,7 C 6,3 km/h (2 Bft)
28.05.2018 11:25 27,3 C 17,7 C 26,1 C 32,0 C 32,0 C 4,7 C 58 % 66 % 1019,0 hPa 0,0 l/m 2,3 km/h (1 Bft) NO 45 5 min 18,3 C 32,0 C 6,9 km/h (2 Bft)
28.05.2018 11:30 27,3 C 17,7 C 26,3 C 31,8 C 31,8 C 4,5 C 60 % 66 % 1019,0 hPa 0,0 l/m 2,4 km/h (1 Bft) O-SO 112 5 min 18,8 C 31,8 C 2,9 km/h (1 Bft)
28.05.2018 11:35 27,3 C 17,7 C 26,4 C 31,7 C 31,7 C 4,4 C 59 % 66 % 1018,4 hPa 0,0 l/m 2,7 km/h (1 Bft) N-NO 22 5 min 18,6 C 31,7 C 3,4 km/h (1 Bft)
28.05.2018 11:40 27,3 C 17,7 C 26,7 C 32,6 C 32,6 C 5,3 C 58 % 65 % 1018,4 hPa 0,0 l/m 3,7 km/h (1 Bft) NO 45 5 min 18,3 C 32,6 C 9,2 km/h (2 Bft)
28.05.2018 11:45 27,5 C 17,7 C 27,1 C 33,0 C 33,0 C 5,5 C 55 % 62 % 1018,4 hPa 0,0 l/m 5,0 km/h (1 Bft) NO 45 5 min 17,6 C 33,0 C 11,4 km/h (2 Bft)
28.05.2018 11:50 27,6 C 17,7 C 27,2 C 33,0 C 33,0 C 5,4 C 54 % 61 % 1018,4 hPa 0,0 l/m 5,8 km/h (2 Bft) O-NO 67 5 min 17,4 C 33,0 C 7,9 km/h (2 Bft)
28.05.2018 11:55 27,9 C 17,7 C 27,6 C 33,3 C 33,3 C 5,4 C 56 % 61 % 1018,4 hPa 0,0 l/m 5,3 km/h (1 Bft) NO 45 5 min 18,3 C 33,3 C 11,4 km/h (2 Bft)
28.05.2018 12:00 28,1 C 17,7 C 27,8 C 33,4 C 33,4 C 5,3 C 53 % 59 % 1018,4 hPa 0,0 l/m 6,1 km/h (2 Bft) NO 45 5 min 17,6 C 33,4 C 4,3 km/h (1 Bft)
28.05.2018 12:05 28,2 C 17,7 C 28,1 C 33,6 C 33,6 C 5,4 C 50 % 57 % 1018,4 hPa 0,0 l/m 7,2 km/h (2 Bft) N-NO 22 5 min 16,8 C 33,6 C 11,7 km/h (2 Bft)
28.05.2018 12:10 28,2 C 17,7 C 28,3 C 33,3 C 33,3 C 5,1 C 50 % 55 % 1018,4 hPa 0,0 l/m 7,6 km/h (2 Bft) NW 315 5 min 16,8 C 33,3 C 7,2 km/h (2 Bft)
28.05.2018 12:15 28,2 C 17,7 C 28,3 C 33,2 C 33,2 C 5,0 C 51 % 56 % 1018,7 hPa 0,0 l/m 7,2 km/h (2 Bft) O-NO 67 5 min 17,1 C 33,2 C 14,2 km/h (3 Bft)
28.05.2018 12:20 28,7 C 17,9 C 28,5 C 33,8 C 33,8 C 5,1 C 50 % 55 % 1018,7 hPa 0,0 l/m 5,8 km/h (2 Bft) O-NO 67 5 min 17,2 C 33,8 C 13,5 km/h (3 Bft)
28.05.2018 12:25 28,7 C 17,9 C 28,5 C 33,6 C 33,6 C 4,9 C 49 % 54 % 1018,7 hPa 0,0 l/m 5,8 km/h (2 Bft) NO 45 5 min 16,9 C 33,6 C 14,6 km/h (3 Bft)
28.05.2018 12:30 28,8 C 17,9 C 28,5 C 33,4 C 33,4 C 4,6 C 48 % 54 % 1018,7 hPa 0,0 l/m 6,6 km/h (2 Bft) O-NO 67 5 min 16,7 C 33,4 C 3,5 km/h (1 Bft)
28.05.2018 12:35 28,8 C 17,9 C 28,5 C 33,6 C 33,6 C 4,8 C 49 % 54 % 1018,6 hPa 0,0 l/m 5,3 km/h (1 Bft) NO 45 5 min 17,0 C 33,6 C 8,7 km/h (2 Bft)
28.05.2018 12:40 29,0 C 18,0 C 28,7 C 33,5 C 33,5 C 4,5 C 49 % 54 % 1018,6 hPa 0,0 l/m 6,0 km/h (2 Bft) O-NO 67 5 min 17,2 C 33,5 C 11,7 km/h (2 Bft)
28.05.2018 12:45 29,0 C 18,0 C 28,6 C 33,3 C 33,3 C 4,3 C 48 % 54 % 1018,6 hPa 0,0 l/m 7,1 km/h (2 Bft) O-NO 67 5 min 16,9 C 33,3 C 5,0 km/h (1 Bft)
28.05.2018 12:50 29,3 C 18,0 C 28,7 C 33,4 C 33,4 C 4,1 C 50 % 53 % 1018,6 hPa 0,0 l/m 5,5 km/h (1 Bft) O-SO 112 5 min 17,8 C 33,4 C 1,8 km/h (1 Bft)
28.05.2018 12:55 29,3 C 18,0 C 28,9 C 33,8 C 33,8 C 4,5 C 47 % 53 % 1018,3 hPa 0,0 l/m 5,3 km/h (1 Bft) O-NO 67 5 min 16,8 C 33,8 C 16,4 km/h (3 Bft)
28.05.2018 13:00 29,2 C 18,1 C 28,8 C 33,7 C 33,7 C 4,5 C 46 % 52 % 1018,3 hPa 0,0 l/m 5,3 km/h (1 Bft) O-NO 67 5 min 16,4 C 33,7 C 5,5 km/h (1 Bft)
28.05.2018 13:05 29,2 C 18,1 C 28,7 C 33,9 C 33,9 C 4,7 C 47 % 53 % 1018,3 hPa 0,0 l/m 5,1 km/h (1 Bft) NO 45 5 min 16,7 C 33,9 C 14,3 km/h (3 Bft)
28.05.2018 13:10 29,3 C 18,1 C 29,1 C 33,9 C 33,9 C 4,6 C 46 % 51 % 1018,3 hPa 0,0 l/m 5,1 km/h (1 Bft) N-NO 22 5 min 16,5 C 33,9 C 9,8 km/h (2 Bft)
28.05.2018 13:15 29,4 C 18,1 C 29,5 C 34,2 C 34,2 C 4,8 C 46 % 50 % 1017,9 hPa 0,0 l/m 5,0 km/h (1 Bft) NO 45 5 min 16,5 C 34,2 C 9,3 km/h (2 Bft)
28.05.2018 13:20 29,8 C 18,2 C 29,4 C 34,5 C 34,5 C 4,7 C 44 % 48 % 1017,9 hPa 0,0 l/m 4,5 km/h (1 Bft) O 90 5 min 16,2 C 34,5 C 7,4 km/h (2 Bft)
28.05.2018 13:25 29,5 C 18,2 C 29,1 C 34,0 C 34,0 C 4,5 C 43 % 47 % 1017,9 hPa 0,0 l/m 5,6 km/h (1 Bft) NO 45 5 min 15,6 C 34,0 C 14,8 km/h (3 Bft)
28.05.2018 13:30 29,4 C 18,2 C 28,9 C 33,6 C 33,6 C 4,2 C 43 % 49 % 1017,9 hPa 0,0 l/m 6,8 km/h (2 Bft) NO 45 5 min 15,5 C 33,6 C 9,2 km/h (2 Bft)
28.05.2018 13:35 29,5 C 18,2 C 28,9 C 33,5 C 33,5 C 4,0 C 44 % 48 % 1018,4 hPa 0,0 l/m 6,6 km/h (2 Bft) O-NO 67 5 min 15,9 C 33,5 C 5,3 km/h (1 Bft)
28.05.2018 13:40 30,0 C 18,3 C 29,1 C 34,6 C 34,6 C 4,6 C 44 % 48 % 1018,4 hPa 0,0 l/m 3,7 km/h (1 Bft) NO 45 5 min 16,4 C 34,6 C 3,1 km/h (1 Bft)
28.05.2018 13:45 30,1 C 18,3 C 29,2 C 34,9 C 34,9 C 4,8 C 41 % 48 % 1018,4 hPa 0,0 l/m 3,9 km/h (1 Bft) NO 45 5 min 15,4 C 34,9 C 12,7 km/h (3 Bft)
28.05.2018 13:50 29,8 C 18,3 C 29,9 C 34,3 C 34,3 C 4,5 C 41 % 48 % 1018,4 hPa 0,0 l/m 5,8 km/h (2 Bft) O-NO 67 5 min 15,1 C 34,3 C 11,3 km/h (2 Bft)
28.05.2018 13:55 29,8 C 18,2 C 30,5 C 34,2 C 34,2 C 4,4 C 42 % 47 % 1018,2 hPa 0,0 l/m 5,5 km/h (1 Bft) N-NO 22 5 min 15,5 C 34,2 C 4,5 km/h (1 Bft)
28.05.2018 14:00 29,8 C 18,2 C 30,9 C 34,3 C 34,3 C 4,5 C 43 % 46 % 1018,2 hPa 0,0 l/m 4,0 km/h (1 Bft) W 270 5 min 15,8 C 34,3 C 0,0 km/h (0 Bft)
28.05.2018 14:05 29,8 C 18,3 C 31,3 C 34,3 C 34,3 C 4,5 C 42 % 44 % 1018,2 hPa 0,0 l/m 5,3 km/h (1 Bft) N-NO 22 5 min 15,5 C 34,3 C 7,6 km/h (2 Bft)
28.05.2018 14:10 29,9 C 18,3 C 31,2 C 34,4 C 34,4 C 4,5 C 42 % 43 % 1018,2 hPa 0,0 l/m 4,8 km/h (1 Bft) O-NO 67 5 min 15,6 C 34,4 C 7,6 km/h (2 Bft)
28.05.2018 14:15 29,7 C 18,3 C 30,5 C 34,1 C 34,1 C 4,4 C 42 % 44 % 1018,2 hPa 0,0 l/m 5,1 km/h (1 Bft) NO 45 5 min 15,4 C 34,1 C 6,0 km/h (2 Bft)
28.05.2018 14:20 29,6 C 18,3 C 29,9 C 33,6 C 33,6 C 4,0 C 42 % 45 % 1018,2 hPa 0,0 l/m 6,1 km/h (2 Bft) N-NO 22 5 min 15,3 C 33,6 C 5,0 km/h (1 Bft)
28.05.2018 14:25 29,5 C 18,3 C 29,6 C 33,0 C 33,0 C 3,5 C 42 % 45 % 1018,2 hPa 0,0 l/m 6,9 km/h (2 Bft) O-NO 67 5 min 15,2 C 33,0 C 8,5 km/h (2 Bft)
28.05.2018 14:30 29,5 C 18,4 C 29,7 C 32,9 C 32,9 C 3,4 C 42 % 46 % 1018,2 hPa 0,0 l/m 8,5 km/h (2 Bft) N-NO 22 5 min 15,2 C 32,9 C 11,9 km/h (2 Bft)
28.05.2018 14:35 29,4 C 18,4 C 29,6 C 33,0 C 33,0 C 3,6 C 43 % 46 % 1017,6 hPa 0,0 l/m 8,5 km/h (2 Bft) NO 45 5 min 15,5 C 33,0 C 6,3 km/h (2 Bft)
28.05.2018 14:40 29,5 C 18,4 C 29,5 C 32,7 C 32,7 C 3,2 C 42 % 47 % 1017,6 hPa 0,0 l/m 8,9 km/h (2 Bft) O-NO 67 0 min 15,2 C 32,7 C 10,6 km/h (2 Bft)
28.05.2018 14:45 29,3 C 18,4 C 29,4 C 32,4 C 32,4 C 3,1 C 43 % 46 % 1017,6 hPa 0,0 l/m 8,4 km/h (2 Bft) O-NO 67 0 min 15,4 C 32,4 C 7,4 km/h (2 Bft)
28.05.2018 14:50 29,4 C 18,4 C 29,4 C 33,2 C 33,2 C 3,8 C 43 % 47 % 1017,6 hPa 0,0 l/m 6,1 km/h (2 Bft) O-NO 67 5 min 15,5 C 33,2 C 6,6 km/h (2 Bft)
28.05.2018 14:55 29,6 C 18,5 C 29,5 C 33,7 C 33,7 C 4,1 C 42 % 46 % 1017,8 hPa 0,0 l/m 4,2 km/h (1 Bft) N-NW 337 5 min 15,3 C 33,7 C 2,7 km/h (1 Bft)
28.05.2018 15:00 29,8 C 18,5 C 29,6 C 34,8 C 34,8 C 5,0 C 43 % 47 % 1017,8 hPa 0,0 l/m 3,5 km/h (1 Bft) NO 45 5 min 15,8 C 34,8 C 6,6 km/h (2 Bft)
28.05.2018 15:05 29,8 C 18,5 C 29,8 C 35,0 C 35,0 C 5,2 C 42 % 46 % 1017,8 hPa 0,0 l/m 4,0 km/h (1 Bft) NO 45 5 min 15,5 C 35,0 C 7,7 km/h (2 Bft)
28.05.2018 15:10 29,7 C 18,5 C 29,6 C 34,8 C 34,8 C 5,1 C 42 % 45 % 1017,8 hPa 0,0 l/m 4,7 km/h (1 Bft) O-NO 67 5 min 15,4 C 34,8 C 4,0 km/h (1 Bft)
28.05.2018 15:15 29,7 C 18,5 C 29,7 C 34,6 C 34,6 C 4,9 C 42 % 45 % 1017,5 hPa 0,0 l/m 6,0 km/h (2 Bft) NO 45 5 min 15,4 C 34,6 C 9,3 km/h (2 Bft)
28.05.2018 15:20 29,5 C 18,6 C 29,6 C 33,8 C 33,8 C 4,3 C 43 % 46 % 1017,5 hPa 0,0 l/m 7,1 km/h (2 Bft) O-SO 112 5 min 15,6 C 33,8 C 5,3 km/h (1 Bft)
28.05.2018 15:25 29,7 C 18,6 C 29,7 C 33,9 C 33,9 C 4,2 C 43 % 47 % 1017,5 hPa 0,0 l/m 6,4 km/h (2 Bft) O-NO 67 5 min 15,8 C 33,9 C 9,3 km/h (2 Bft)
28.05.2018 15:30 29,8 C 18,6 C 29,6 C 34,3 C 34,3 C 4,5 C 43 % 47 % 1017,5 hPa 0,0 l/m 4,8 km/h (1 Bft) NO 45 5 min 15,8 C 34,3 C 3,1 km/h (1 Bft)
28.05.2018 15:35 29,8 C 18,6 C 29,7 C 34,3 C 34,3 C 4,5 C 43 % 46 % 1017,3 hPa 0,0 l/m 5,5 km/h (1 Bft) O 90 5 min 15,8 C 34,3 C 5,5 km/h (1 Bft)
28.05.2018 15:40 29,7 C 18,6 C 29,5 C 33,4 C 33,4 C 3,7 C 42 % 47 % 1017,3 hPa 0,0 l/m 7,2 km/h (2 Bft) O-NO 67 5 min 15,4 C 33,4 C 11,4 km/h (2 Bft)
28.05.2018 15:45 29,5 C 18,6 C 29,7 C 33,3 C 33,3 C 3,8 C 43 % 48 % 1017,3 hPa 0,0 l/m 6,6 km/h (2 Bft) O-NO 67 5 min 15,6 C 33,3 C 5,3 km/h (1 Bft)
28.05.2018 15:50 29,7 C 18,7 C 29,7 C 33,9 C 33,9 C 4,2 C 43 % 46 % 1017,3 hPa 0,0 l/m 5,5 km/h (1 Bft) NO 45 5 min 15,8 C 33,9 C 9,5 km/h (2 Bft)
28.05.2018 15:55 29,6 C 18,7 C 29,8 C 33,9 C 33,9 C 4,3 C 43 % 46 % 1016,6 hPa 0,0 l/m 5,8 km/h (2 Bft) O-NO 67 5 min 15,7 C 33,9 C 4,3 km/h (1 Bft)
28.05.2018 16:00 29,6 C 18,7 C 29,7 C 34,1 C 34,1 C 4,5 C 42 % 45 % 1016,6 hPa 0,0 l/m 6,6 km/h (2 Bft) O-NO 67 5 min 15,3 C 34,1 C 10,1 km/h (2 Bft)
28.05.2018 16:05 29,6 C 18,7 C 29,8 C 34,0 C 34,0 C 4,4 C 43 % 46 % 1016,6 hPa 0,0 l/m 6,0 km/h (2 Bft) O-NO 67 5 min 15,7 C 34,0 C 4,5 km/h (1 Bft)
28.05.2018 16:10 29,7 C 18,7 C 30,1 C 34,3 C 34,3 C 4,6 C 43 % 47 % 1016,6 hPa 0,0 l/m 6,1 km/h (2 Bft) NO 45 5 min 15,8 C 34,3 C 7,9 km/h (2 Bft)
28.05.2018 16:15 29,8 C 18,7 C 30,4 C 34,5 C 34,5 C 4,7 C 44 % 47 % 1016,8 hPa 0,0 l/m 5,1 km/h (1 Bft) NO 45 5 min 16,2 C 34,5 C 9,3 km/h (2 Bft)
28.05.2018 16:20 29,9 C 18,8 C 30,4 C 34,5 C 34,5 C 4,6 C 44 % 46 % 1016,8 hPa 0,0 l/m 5,5 km/h (1 Bft) O-NO 67 5 min 16,3 C 34,5 C 6,1 km/h (2 Bft)
28.05.2018 16:25 29,9 C 18,8 C 30,6 C 34,5 C 34,5 C 4,6 C 43 % 46 % 1016,8 hPa 0,0 l/m 5,6 km/h (1 Bft) O-NO 67 5 min 15,9 C 34,5 C 4,8 km/h (1 Bft)
28.05.2018 16:30 30,0 C 18,8 C 30,4 C 34,3 C 34,3 C 4,3 C 44 % 46 % 1016,8 hPa 0,0 l/m 6,3 km/h (2 Bft) O-NO 67 5 min 16,4 C 34,3 C 11,9 km/h (2 Bft)
28.05.2018 16:35 29,8 C 18,8 C 30,1 C 33,9 C 33,9 C 4,1 C 44 % 47 % 1016,9 hPa 0,0 l/m 6,1 km/h (2 Bft) NO 45 5 min 16,2 C 33,9 C 6,9 km/h (2 Bft)
28.05.2018 16:40 29,3 C 18,8 C 29,2 C 31,9 C 31,9 C 2,6 C 45 % 47 % 1016,9 hPa 0,0 l/m 5,8 km/h (2 Bft) O-NO 67 0 min 16,1 C 31,9 C 3,4 km/h (1 Bft)
28.05.2018 16:45 29,3 C 18,8 C 29,2 C 31,8 C 31,8 C 2,5 C 46 % 49 % 1016,9 hPa 0,0 l/m 5,0 km/h (1 Bft) O-NO 67 0 min 16,5 C 31,8 C 4,3 km/h (1 Bft)
28.05.2018 16:50 29,2 C 18,8 C 29,5 C 32,3 C 32,3 C 3,1 C 45 % 48 % 1016,9 hPa 0,0 l/m 4,8 km/h (1 Bft) O-NO 67 0 min 16,0 C 32,3 C 8,9 km/h (2 Bft)
28.05.2018 16:55 29,3 C 18,9 C 29,5 C 32,8 C 32,8 C 3,5 C 46 % 48 % 1017,3 hPa 0,0 l/m 4,7 km/h (1 Bft) O-NO 67 5 min 16,5 C 32,8 C 4,2 km/h (1 Bft)
28.05.2018 17:00 29,5 C 18,9 C 29,7 C 33,5 C 33,5 C 4,0 C 46 % 49 % 1017,3 hPa 0,0 l/m 4,7 km/h (1 Bft) O-NO 67 5 min 16,6 C 33,5 C 3,7 km/h (1 Bft)
28.05.2018 17:05 29,5 C 18,9 C 29,8 C 33,8 C 33,8 C 4,3 C 45 % 49 % 1017,3 hPa 0,0 l/m 5,5 km/h (1 Bft) O-NO 67 5 min 16,3 C 33,8 C 7,6 km/h (2 Bft)
28.05.2018 17:10 29,7 C 18,9 C 29,9 C 33,8 C 33,8 C 4,1 C 46 % 49 % 1017,3 hPa 0,0 l/m 6,0 km/h (2 Bft) O-NO 67 5 min 16,8 C 33,8 C 7,2 km/h (2 Bft)
28.05.2018 17:15 29,7 C 18,9 C 29,8 C 33,7 C 33,7 C 4,0 C 45 % 47 % 1016,5 hPa 0,0 l/m 6,9 km/h (2 Bft) NO 45 5 min 16,5 C 33,7 C 14,0 km/h (3 Bft)
28.05.2018 17:20 29,5 C 19,0 C 29,6 C 33,1 C 33,1 C 3,6 C 45 % 49 % 1016,5 hPa 0,0 l/m 7,7 km/h (2 Bft) NO 45 5 min 16,3 C 33,1 C 8,2 km/h (2 Bft)
28.05.2018 17:25 29,5 C 19,0 C 29,6 C 33,0 C 33,0 C 3,5 C 46 % 49 % 1016,5 hPa 0,0 l/m 6,8 km/h (2 Bft) O-NO 67 5 min 16,6 C 33,0 C 18,2 km/h (3 Bft)
28.05.2018 17:30 29,5 C 19,0 C 29,7 C 33,2 C 33,2 C 3,7 C 46 % 50 % 1016,5 hPa 0,0 l/m 6,1 km/h (2 Bft) O-NO 67 5 min 16,6 C 33,2 C 5,3 km/h (1 Bft)
28.05.2018 17:35 29,6 C 19,0 C 29,7 C 33,5 C 33,5 C 3,9 C 45 % 49 % 1016,6 hPa 0,0 l/m 6,1 km/h (2 Bft) NO 45 5 min 16,4 C 33,5 C 5,3 km/h (1 Bft)
28.05.2018 17:40 29,5 C 19,0 C 29,3 C 32,5 C 32,5 C 3,0 C 44 % 47 % 1016,6 hPa 0,0 l/m 7,7 km/h (2 Bft) NO 45 0 min 15,9 C 32,5 C 11,6 km/h (2 Bft)
28.05.2018 17:45 29,2 C 19,0 C 29,0 C 31,3 C 31,3 C 2,1 C 45 % 48 % 1016,6 hPa 0,0 l/m 8,7 km/h (2 Bft) NO 45 0 min 16,0 C 31,3 C 12,6 km/h (3 Bft)
28.05.2018 17:50 28,9 C 19,1 C 28,8 C 30,5 C 30,5 C 1,6 C 46 % 50 % 1016,6 hPa 0,0 l/m 8,5 km/h (2 Bft) N 360 0 min 16,1 C 30,5 C 5,8 km/h (2 Bft)
28.05.2018 17:55 29,1 C 19,1 C 29,0 C 30,8 C 30,8 C 1,7 C 47 % 50 % 1016,5 hPa 0,0 l/m 6,8 km/h (2 Bft) O-NO 67 0 min 16,6 C 30,8 C 4,2 km/h (1 Bft)
28.05.2018 18:00 29,2 C 19,1 C 29,1 C 31,9 C 31,9 C 2,7 C 49 % 53 % 1016,5 hPa 0,0 l/m 3,4 km/h (1 Bft) NO 45 0 min 17,4 C 31,9 C 3,7 km/h (1 Bft)
28.05.2018 18:05 29,2 C 19,1 C 28,9 C 32,3 C 32,3 C 3,1 C 48 % 53 % 1016,5 hPa 0,0 l/m 2,6 km/h (1 Bft) NO 45 0 min 17,0 C 32,3 C 6,1 km/h (2 Bft)
28.05.2018 18:10 28,9 C 19,1 C 28,7 C 31,9 C 31,9 C 3,0 C 48 % 53 % 1016,5 hPa 0,0 l/m 4,0 km/h (1 Bft) O-NO 67 0 min 16,8 C 31,9 C 5,6 km/h (1 Bft)
28.05.2018 18:15 28,8 C 19,1 C 28,7 C 31,9 C 31,9 C 3,1 C 48 % 53 % 1016,4 hPa 0,0 l/m 4,7 km/h (1 Bft) O-NO 67 0 min 16,7 C 31,9 C 3,4 km/h (1 Bft)
28.05.2018 18:20 28,7 C 19,2 C 28,5 C 32,1 C 32,1 C 3,4 C 49 % 53 % 1016,4 hPa 0,0 l/m 5,0 km/h (1 Bft) N-NO 22 5 min 16,9 C 32,1 C 3,9 km/h (1 Bft)
28.05.2018 18:25 28,5 C 19,3 C 28,3 C 31,2 C 31,2 C 2,7 C 50 % 54 % 1016,4 hPa 0,0 l/m 4,2 km/h (1 Bft) O-SO 112 0 min 17,0 C 31,2 C 4,3 km/h (1 Bft)
28.05.2018 18:30 28,3 C 19,3 C 28,0 C 30,4 C 30,4 C 2,1 C 51 % 56 % 1016,4 hPa 0,0 l/m 3,5 km/h (1 Bft) O-NO 67 0 min 17,2 C 30,4 C 2,7 km/h (1 Bft)
28.05.2018 18:35 28,2 C 19,3 C 28,0 C 30,7 C 30,7 C 2,5 C 52 % 56 % 1016,2 hPa 0,0 l/m 3,1 km/h (1 Bft) O-NO 67 0 min 17,4 C 30,7 C 0,0 km/h (0 Bft)
28.05.2018 18:40 28,3 C 19,3 C 28,1 C 31,6 C 31,6 C 3,3 C 53 % 56 % 1016,2 hPa 0,0 l/m 1,8 km/h (1 Bft) NO 45 5 min 17,8 C 31,6 C 0,0 km/h (0 Bft)
28.05.2018 18:45 28,3 C 19,3 C 28,0 C 32,3 C 32,3 C 4,0 C 52 % 55 % 1016,2 hPa 0,0 l/m 1,9 km/h (1 Bft) O-NO 67 5 min 17,5 C 32,3 C 3,7 km/h (1 Bft)
28.05.2018 18:50 28,5 C 19,3 C 28,1 C 32,7 C 32,7 C 4,2 C 52 % 56 % 1016,2 hPa 0,0 l/m 1,6 km/h (1 Bft) O-NO 67 5 min 17,7 C 32,7 C 2,4 km/h (1 Bft)
28.05.2018 18:55 28,4 C 19,3 C 28,0 C 32,8 C 32,8 C 4,4 C 52 % 56 % 1016,2 hPa 0,0 l/m 2,3 km/h (1 Bft) O-NO 67 5 min 17,6 C 32,8 C 2,7 km/h (1 Bft)
28.05.2018 19:00 28,4 C 19,3 C 28,0 C 32,5 C 32,5 C 4,1 C 52 % 56 % 1016,2 hPa 0,0 l/m 3,7 km/h (1 Bft) O-NO 67 5 min 17,6 C 32,5 C 7,7 km/h (2 Bft)
28.05.2018 19:05 28,3 C 19,3 C 27,9 C 32,1 C 32,1 C 3,8 C 52 % 57 % 1016,2 hPa 0,0 l/m 4,2 km/h (1 Bft) O 90 5 min 17,5 C 32,1 C 6,3 km/h (2 Bft)
28.05.2018 19:10 28,3 C 19,4 C 27,8 C 31,5 C 31,5 C 3,2 C 53 % 57 % 1016,2 hPa 0,0 l/m 5,3 km/h (1 Bft) NO 45 5 min 17,8 C 31,5 C 5,0 km/h (1 Bft)
28.05.2018 19:15 28,3 C 19,4 C 27,7 C 31,3 C 31,3 C 3,0 C 53 % 58 % 1016,2 hPa 0,0 l/m 4,2 km/h (1 Bft) O-NO 67 5 min 17,8 C 31,3 C 2,4 km/h (1 Bft)
28.05.2018 19:25 28,1 C 19,4 C 27,5 C 31,6 C 31,6 C 3,5 C 53 % 58 % 1016,2 hPa 0,0 l/m 1,9 km/h (1 Bft) O-NO 67 10 min 17,6 C 31,6 C 3,4 km/h (1 Bft)
28.05.2018 19:30 27,9 C 19,4 C 27,3 C 31,1 C 31,1 C 3,2 C 53 % 59 % 1016,2 hPa 0,0 l/m 3,5 km/h (1 Bft) O-NO 67 5 min 17,4 C 31,1 C 4,2 km/h (1 Bft)
28.05.2018 19:35 27,8 C 19,4 C 27,2 C 30,8 C 30,8 C 3,0 C 54 % 59 % 1016,2 hPa 0,0 l/m 3,5 km/h (1 Bft) NO 45 5 min 17,6 C 30,8 C 2,9 km/h (1 Bft)
28.05.2018 19:40 27,6 C 19,4 C 27,1 C 30,2 C 30,2 C 2,6 C 53 % 59 % 1016,2 hPa 0,0 l/m 4,0 km/h (1 Bft) N-NO 22 5 min 17,1 C 30,2 C 5,6 km/h (1 Bft)
28.05.2018 19:45 27,6 C 19,4 C 26,9 C 29,8 C 29,8 C 2,2 C 53 % 59 % 1016,2 hPa 0,0 l/m 4,5 km/h (1 Bft) NO 45 5 min 17,1 C 29,8 C 6,6 km/h (2 Bft)
28.05.2018 19:50 27,4 C 19,4 C 26,7 C 29,3 C 29,3 C 1,9 C 53 % 59 % 1016,2 hPa 0,0 l/m 4,3 km/h (1 Bft) NO 45 5 min 17,0 C 29,3 C 4,7 km/h (1 Bft)
28.05.2018 19:55 27,3 C 19,4 C 26,7 C 29,1 C 29,1 C 1,8 C 53 % 60 % 1015,8 hPa 0,0 l/m 4,0 km/h (1 Bft) NO 45 5 min 16,9 C 29,1 C 4,5 km/h (1 Bft)
28.05.2018 20:00 27,1 C 19,4 C 26,4 C 28,6 C 28,6 C 1,5 C 55 % 60 % 1015,8 hPa 0,0 l/m 4,3 km/h (1 Bft) NO 45 5 min 17,3 C 28,6 C 6,3 km/h (2 Bft)
28.05.2018 20:05 27,0 C 19,4 C 26,3 C 28,2 C 28,2 C 1,2 C 55 % 61 % 1015,8 hPa 0,0 l/m 4,5 km/h (1 Bft) O-SO 112 0 min 17,2 C 28,2 C 4,3 km/h (1 Bft)
28.05.2018 20:10 26,8 C 19,5 C 26,1 C 27,5 C 27,5 C 0,7 C 57 % 62 % 1015,8 hPa 0,0 l/m 4,0 km/h (1 Bft) NO 45 0 min 17,6 C 27,5 C 4,3 km/h (1 Bft)
28.05.2018 20:15 26,7 C 19,5 C 26,0 C 27,1 C 27,1 C 0,4 C 57 % 62 % 1016,3 hPa 0,0 l/m 4,0 km/h (1 Bft) O-NO 67 0 min 17,5 C 27,1 C 4,8 km/h (1 Bft)
28.05.2018 20:20 26,5 C 19,5 C 25,9 C 26,5 C 26,5 C 0,0 C 57 % 62 % 1016,3 hPa 0,0 l/m 5,0 km/h (1 Bft) O-NO 67 0 min 17,3 C 26,5 C 7,1 km/h (2 Bft)
28.05.2018 20:25 26,4 C 19,5 C 25,8 C 26,5 C 26,5 C 0,1 C 57 % 62 % 1016,3 hPa 0,0 l/m 5,5 km/h (1 Bft) O-NO 67 0 min 17,2 C 26,5 C 5,5 km/h (1 Bft)
28.05.2018 20:30 26,3 C 19,5 C 25,8 C 26,5 C 26,5 C 0,2 C 57 % 62 % 1016,3 hPa 0,0 l/m 5,3 km/h (1 Bft) N-NO 22 0 min 17,1 C 26,5 C 3,7 km/h (1 Bft)
28.05.2018 20:35 26,2 C 19,5 C 25,7 C 26,4 C 26,4 C 0,2 C 58 % 63 % 1016,4 hPa 0,0 l/m 4,5 km/h (1 Bft) O-NO 67 0 min 17,3 C 26,4 C 4,3 km/h (1 Bft)
28.05.2018 20:40 26,0 C 19,5 C 25,2 C 26,0 C 25,9 C 0,0 C 59 % 63 % 1016,4 hPa 0,0 l/m 4,0 km/h (1 Bft) O-NO 67 0 min 17,4 C 25,9 C 5,5 km/h (1 Bft)
28.05.2018 20:45 25,8 C 19,6 C 25,2 C 25,7 C 25,5 C 0,0 C 59 % 64 % 1016,4 hPa 0,0 l/m 4,2 km/h (1 Bft) O-NO 67 0 min 17,2 C 25,5 C 4,8 km/h (1 Bft)
28.05.2018 20:50 25,7 C 19,6 C 24,9 C 25,5 C 25,0 C 0,0 C 60 % 65 % 1016,4 hPa 0,0 l/m 5,1 km/h (1 Bft) NO 45 0 min 17,3 C 25,0 C 4,7 km/h (1 Bft)
28.05.2018 20:55 25,4 C 19,6 C 24,8 C 25,2 C 24,9 C 0,0 C 61 % 66 % 1016,6 hPa 0,0 l/m 5,5 km/h (1 Bft) O-NO 67 0 min 17,3 C 24,9 C 6,1 km/h (2 Bft)
28.05.2018 21:00 25,3 C 19,6 C 24,6 C 25,0 C 24,5 C 0,0 C 62 % 66 % 1016,6 hPa 0,0 l/m 5,3 km/h (1 Bft) O-NO 67 0 min 17,5 C 24,5 C 5,8 km/h (2 Bft)
28.05.2018 21:05 25,1 C 19,6 C 24,5 C 24,9 C 24,4 C 0,0 C 62 % 67 % 1016,6 hPa 0,0 l/m 5,0 km/h (1 Bft) O-NO 67 0 min 17,3 C 24,4 C 5,0 km/h (1 Bft)
28.05.2018 21:10 24,8 C 19,6 C 24,1 C 24,6 C 24,1 C 0,0 C 62 % 68 % 1016,6 hPa 0,0 l/m 5,1 km/h (1 Bft) NO 45 0 min 17,0 C 24,1 C 6,4 km/h (2 Bft)
28.05.2018 21:15 24,8 C 19,6 C 24,1 C 24,5 C 24,0 C 0,0 C 63 % 68 % 1016,6 hPa 0,0 l/m 5,8 km/h (2 Bft) NO 45 0 min 17,3 C 24,0 C 7,7 km/h (2 Bft)
28.05.2018 21:20 24,7 C 19,6 C 24,1 C 24,4 C 23,9 C 0,0 C 64 % 69 % 1016,6 hPa 0,0 l/m 6,4 km/h (2 Bft) O-NO 67 0 min 17,4 C 23,9 C 6,9 km/h (2 Bft)
28.05.2018 21:25 24,7 C 19,6 C 23,9 C 24,4 C 23,9 C 0,0 C 64 % 69 % 1016,6 hPa 0,0 l/m 6,6 km/h (2 Bft) NO 45 0 min 17,4 C 23,9 C 7,1 km/h (2 Bft)
28.05.2018 21:30 24,4 C 19,6 C 23,8 C 24,2 C 23,7 C 0,0 C 65 % 70 % 1016,6 hPa 0,0 l/m 6,1 km/h (2 Bft) O-NO 67 0 min 17,4 C 23,7 C 5,3 km/h (1 Bft)
28.05.2018 21:35 24,4 C 19,6 C 23,7 C 24,2 C 23,7 C 0,0 C 65 % 70 % 1016,9 hPa 0,0 l/m 5,0 km/h (1 Bft) NO 45 0 min 17,4 C 23,7 C 5,1 km/h (1 Bft)
28.05.2018 21:40 24,3 C 19,6 C 23,4 C 24,0 C 23,4 C 0,0 C 66 % 71 % 1016,9 hPa 0,0 l/m 4,8 km/h (1 Bft) O-NO 67 0 min 17,5 C 23,4 C 7,1 km/h (2 Bft)
28.05.2018 21:45 24,1 C 19,6 C 23,4 C 23,9 C 23,4 C 0,0 C 66 % 71 % 1016,9 hPa 0,0 l/m 4,7 km/h (1 Bft) O-NO 67 0 min 17,3 C 23,4 C 5,0 km/h (1 Bft)
28.05.2018 21:50 24,0 C 19,6 C 23,3 C 23,7 C 23,2 C 0,0 C 66 % 71 % 1016,9 hPa 0,0 l/m 3,7 km/h (1 Bft) O-NO 67 0 min 17,2 C 23,2 C 3,4 km/h (1 Bft)
28.05.2018 21:55 23,9 C 19,6 C 23,1 C 23,6 C 23,0 C 0,0 C 67 % 72 % 1017,1 hPa 0,0 l/m 3,2 km/h (1 Bft) NO 45 0 min 17,4 C 23,0 C 3,5 km/h (1 Bft)
28.05.2018 22:00 23,7 C 19,6 C 22,9 C 23,4 C 22,9 C 0,0 C 67 % 73 % 1017,1 hPa 0,0 l/m 3,5 km/h (1 Bft) NO 45 0 min 17,2 C 22,9 C 5,3 km/h (1 Bft)
28.05.2018 22:05 23,6 C 19,6 C 22,9 C 23,3 C 22,8 C 0,0 C 67 % 73 % 1017,1 hPa 0,0 l/m 3,7 km/h (1 Bft) NO 45 0 min 17,1 C 22,8 C 3,9 km/h (1 Bft)
28.05.2018 22:10 23,6 C 19,6 C 22,7 C 23,3 C 22,7 C 0,0 C 68 % 73 % 1017,1 hPa 0,0 l/m 3,2 km/h (1 Bft) O-NO 67 0 min 17,3 C 22,7 C 0,0 km/h (0 Bft)
28.05.2018 22:15 23,5 C 19,6 C 22,5 C 23,2 C 22,5 C 0,0 C 68 % 74 % 1017,2 hPa 0,0 l/m 2,3 km/h (1 Bft) N-NO 22 0 min 17,2 C 22,5 C 3,5 km/h (1 Bft)
28.05.2018 22:20 23,3 C 19,6 C 22,2 C 23,0 C 22,3 C 0,0 C 69 % 74 % 1017,2 hPa 0,0 l/m 1,4 km/h (1 Bft) NO 45 0 min 17,3 C 22,3 C 0,0 km/h (0 Bft)
28.05.2018 22:25 23,1 C 19,6 C 22,2 C 22,8 C 22,1 C 0,0 C 69 % 74 % 1017,2 hPa 0,0 l/m 1,1 km/h (1 Bft) O-NO 67 0 min 17,1 C 22,1 C 0,0 km/h (0 Bft)
28.05.2018 22:30 22,8 C 19,6 C 22,1 C 22,4 C 21,7 C 0,0 C 69 % 75 % 1017,2 hPa 0,0 l/m 0,2 km/h (0 Bft) S 180 0 min 16,8 C 21,7 C 0,0 km/h (0 Bft)
28.05.2018 22:35 22,8 C 19,6 C 21,8 C 22,3 C 21,4 C 0,0 C 69 % 75 % 1016,9 hPa 0,0 l/m 0,0 km/h (0 Bft) N-NO 22 0 min 16,8 C 21,4 C 0,0 km/h (0 Bft)
28.05.2018 22:40 22,5 C 19,6 C 21,7 C 22,0 C 21,1 C 0,0 C 69 % 76 % 1016,9 hPa 0,0 l/m 0,0 km/h (0 Bft) NW 315 0 min 16,5 C 21,1 C 0,0 km/h (0 Bft)
28.05.2018 22:45 22,4 C 19,6 C 21,6 C 21,9 C 20,8 C 0,0 C 69 % 76 % 1016,9 hPa 0,0 l/m 0,0 km/h (0 Bft) N 360 0 min 16,4 C 20,8 C 0,0 km/h (0 Bft)
28.05.2018 22:50 22,2 C 19,6 C 21,5 C 21,7 C 20,6 C 0,0 C 70 % 77 % 1016,9 hPa 0,0 l/m 0,0 km/h (0 Bft) N-NO 22 0 min 16,5 C 20,6 C 0,0 km/h (0 Bft)
28.05.2018 22:55 22,0 C 19,6 C 21,3 C 21,5 C 20,4 C 0,0 C 71 % 77 % 1017,1 hPa 0,0 l/m 0,0 km/h (0 Bft) N-NO 22 0 min 16,5 C 20,4 C 0,0 km/h (0 Bft)
28.05.2018 23:00 21,8 C 19,6 C 21,1 C 21,3 C 20,2 C 0,0 C 71 % 78 % 1017,1 hPa 0,0 l/m 0,0 km/h (0 Bft) N 360 0 min 16,3 C 20,2 C 0,0 km/h (0 Bft)
28.05.2018 23:05 21,7 C 19,6 C 21,0 C 21,2 C 20,1 C 0,0 C 72 % 78 % 1017,1 hPa 0,0 l/m 0,0 km/h (0 Bft) N-NO 22 0 min 16,4 C 20,1 C 0,0 km/h (0 Bft)
28.05.2018 23:10 21,5 C 19,6 C 20,8 C 21,0 C 20,0 C 0,0 C 73 % 78 % 1017,1 hPa 0,0 l/m 0,0 km/h (0 Bft) N-NO 22 0 min 16,4 C 20,0 C 0,0 km/h (0 Bft)
28.05.2018 23:15 21,4 C 19,6 C 20,7 C 20,9 C 20,0 C 0,0 C 73 % 79 % 1017,1 hPa 0,0 l/m 0,0 km/h (0 Bft) N-NO 22 0 min 16,4 C 20,0 C 0,0 km/h (0 Bft)
28.05.2018 23:20 21,2 C 19,7 C 20,4 C 20,7 C 19,7 C 0,0 C 74 % 80 % 1017,1 hPa 0,0 l/m 0,0 km/h (0 Bft) N-NO 22 0 min 16,4 C 19,7 C 0,0 km/h (0 Bft)
28.05.2018 23:25 21,1 C 19,7 C 20,4 C 20,6 C 19,6 C 0,0 C 75 % 80 % 1017,1 hPa 0,0 l/m 0,0 km/h (0 Bft) N 360 0 min 16,5 C 19,6 C 0,0 km/h (0 Bft)
28.05.2018 23:30 21,0 C 19,7 C 20,3 C 20,5 C 19,5 C 0,0 C 75 % 80 % 1017,1 hPa 0,0 l/m 0,0 km/h (0 Bft) N-NO 22 0 min 16,4 C 19,5 C 0,0 km/h (0 Bft)
28.05.2018 23:35 20,8 C 19,7 C 20,1 C 20,3 C 19,4 C 0,0 C 75 % 81 % 1017,1 hPa 0,0 l/m 0,0 km/h (0 Bft) N-NW 337 0 min 16,2 C 19,4 C 0,0 km/h (0 Bft)
28.05.2018 23:40 20,7 C 19,7 C 20,0 C 20,2 C 19,2 C 0,0 C 77 % 81 % 1017,1 hPa 0,0 l/m 0,0 km/h (0 Bft) N 360 0 min 16,5 C 19,2 C 0,0 km/h (0 Bft)
28.05.2018 23:45 20,7 C 19,7 C 20,0 C 20,2 C 19,3 C 0,0 C 77 % 81 % 1017,1 hPa 0,0 l/m 0,0 km/h (0 Bft) N-NO 22 0 min 16,5 C 19,3 C 0,0 km/h (0 Bft)
28.05.2018 23:50 20,6 C 19,7 C 19,9 C 20,2 C 19,4 C 0,0 C 77 % 82 % 1017,1 hPa 0,0 l/m 0,2 km/h (0 Bft) NO 45 0 min 16,4 C 19,4 C 0,0 km/h (0 Bft)
28.05.2018 23:55 20,5 C 19,7 C 19,8 C 20,2 C 19,6 C 0,0 C 78 % 82 % 1016,8 hPa 0,0 l/m 0,2 km/h (0 Bft) O-NO 67 0 min 16,5 C 19,6 C 0,0 km/h (0 Bft)
_ Min-Zeit 06:00 06:55 05:30 05:30 05:30 00:00 13:45 14:10 19:55 - 00:00 - - - 06:00 05:30 00:00
Minimum _ 11,5 C 17,7 C 13,2 C 12,1 C 12,1 C 0,0 C 41 % 43 % 1015,8 hPa - 0,0 km/h (0 Bft) - - - 9,4 C 12,1 C 0,0 km/h (0 Bft)
_ Max-Zeit 13:45 23:20 14:05 15:05 15:05 08:25 07:10 00:00 08:35 00:00 14:40 - - 19:25 11:05 15:05 17:25
Maximum _ 30,1 C 19,7 C 31,3 C 35,0 C 35,0 C 12,5 C 88 % 89 % 1019,2 hPa 0,0 l/m 8,9 km/h
O-NO (2 Bft)
- - 10 min 19,1 C 35,0 C 18,2 km/h
O-NO (3 Bft)
Durchschnitt _ 22,1 C 18,5 C 22,1 C 24,9 C 24,8 C 2,9 C 67 % 71 % 1017,7 hPa #0,0 l/m 2,6 km/h (1 Bft) O-NO - #11:25 h 15,0 C 24,8 C 3,4 km/h (1 Bft)
2018 www.wetterstation-wechselburg.de